Zurück zum Katalog

STARLINK-38195

AktivKommunikationSSO
NORAD 100196·PAYLOAD·🇺🇸 United States

Gestartet Aug 1, 2026 von Vandenberg Space Force Base

Loading…

Nächste Überflüge (nächste 24 Stunden)

TLE

AktuellSource: Space-Track

Epoche: Sep 14, 2026, 02:13 UTC

1 A0196U 26175T   26257.09257458  .00166512  00000-0  10959-2 0  9996
2 A0196  97.2821  99.3060 0003408  55.9662 304.1927 15.75179656  8176

Verfolge STARLINK-38195 in Echtzeit mit AllMySat

Download on the App Store